This is the latest recevied weather packets stored in our database for station/object KD9CCP. If no packets are shown the sender has not sent any weather packets the latest 1 day(s).
| Time | Temp. | Humidity | Pressure | Rain* | Wind** | Luminosity | Snow |
|---|---|---|---|---|---|---|---|
| 1778107969 | 3.89° C | 65% | 1014.6 hPa | 0 mm | - | 20 W/m² | - |
| 1778107665 | 4.44° C | 67% | 1014.9 hPa | 0 mm | - | 19 W/m² | - |
| 1778105543 | 4.44° C | 59% | 1014.6 hPa | 0 mm | - | 24 W/m² | - |
| 1778104024 | 4.44° C | 60% | 1014.4 hPa | 0 mm | - | 30 W/m² | - |
| 1778102814 | 4.44° C | 59% | 1014.4 hPa | 0 mm | - | 34 W/m² | - |
| 1778101295 | 4.44° C | 63% | 1014.5 hPa | 0 mm | - | 38 W/m² | - |
| 1778100385 | 4.44° C | 60% | 1014.5 hPa | 0 mm | - | 49 W/m² | - |
| 1778099476 | 4.44° C | 63% | 1014.6 hPa | 0 mm | - | 47 W/m² | - |
| 1778098870 | 4.44° C | 60% | 1014.6 hPa | 0 mm | - | 42 W/m² | - |
| 1778097960 | 4.44° C | 61% | 1014.5 hPa | 0 mm | - | 62 W/m² | - |
| 1778097657 | 4.44° C | 60% | 1014.6 hPa | 0 mm | - | 68 W/m² | - |
| 1778097050 | 4.44° C | 60% | 1014.7 hPa | 0 mm | - | 54 W/m² | - |
| 1778094624 | 3.89° C | 64% | 1014.6 hPa | 0 mm | - | 79 W/m² | - |
| 1778092807 | 3.89° C | 59% | 1014.7 hPa | 0 mm | - | 95 W/m² | - |
| 1778089473 | 3.89° C | 59% | 1015.2 hPa | 0 mm | - | 91 W/m² | - |
| 1778086141 | 3.33° C | 59% | 1015.3 hPa | 0 mm | - | 94 W/m² | - |
| 1778085230 | 2.78° C | 62% | 1015.4 hPa | 0 mm | - | 89 W/m² | - |
| 1778084321 | 2.22° C | 66% | 1015.3 hPa | 0 mm | - | 75 W/m² | - |
| 1778084018 | 1.67° C | 70% | 1015.2 hPa | 0 mm | - | 89 W/m² | - |
| 1778081685 | 1.67° C | 72% | 1015.3 hPa | 0 mm | - | 41 W/m² | - |
| 1778080778 | 1.11° C | 76% | 1014.9 hPa | 0 mm | - | 59 W/m² | - |
| 1778079868 | 0.56° C | 76% | 1014.8 hPa | 0 mm | - | 32 W/m² | - |
| 1778077749 | 1.67° C | 72% | 1014.6 hPa | 0 mm | - | 17 W/m² | - |
| 1778077447 | 1.67° C | 71% | 1014.8 hPa | 0 mm | - | 19 W/m² | - |
| 1778075934 | 1.67° C | 75% | 1014.4 hPa | 0 mm | - | 30 W/m² | - |
* Rain latest hour (hover to see other rain measurements)
** Current wind speed in m/s (hover to see current wind gust speed)